Location: Forli
(44.2227°N, 12.0407°E)
Time: 01:16:45
(UTC+02:00)

PCSat - Pass Details

Date: 13 April 2026
Orbit: 781 x 790 km, 67.1° (Epoch: 19 May)

Event Time Altitude Azimuth Distance (km) Brightness Sun altitude
Rises 02:20:00 0° 322° (NW) 3,293 13.1 -34.6°
Reaches altitude 10° 02:22:32 10° 315° (NW) 2,360 12.2 -34.5°
Enters shadow 02:23:05 13° 312° (NW) 2,171 12.0 -34.4°
